Hourly Weather Barnislaw

Today, 6 May, Thursday

Time Temperature Precipitation Wind Pressure Humidity
00:00 +3°C° 0 mm 10 mps 744 mmHg 67%
01:00 +2°C° 0 mm 9 mps 744 mmHg 64%
02:00 +2°C° 0 mm 9 mps 744 mmHg 67%
03:00 +1°C° 0 mm 9 mps 745 mmHg 69%
04:00 +1°C° 0 mm 8 mps 745 mmHg 71%
05:00 +1°C° 0 mm 8 mps 745 mmHg 71%
06:00 +2°C° 0 mm 8 mps 745 mmHg 71%
07:00 +2°C° 0 mm 8 mps 746 mmHg 71%
08:00 +4°C° 0 mm 8 mps 746 mmHg 63%
09:00 +6°C° 0 mm 8 mps 746 mmHg 56%
10:00 +7°C° 0 mm 8 mps 746 mmHg 48%
11:00 +7°C° 0 mm 8 mps 746 mmHg 48%
12:00 +9°C° 0 mm 7 mps 746 mmHg 48%
13:00 +9°C° 0 mm 7 mps 746 mmHg 48%
14:00 +9°C° 0.1 mm 6 mps 746 mmHg 46%
15:00 +10°C° 0.1 mm 6 mps 746 mmHg 45%
16:00 +10°C° 0.1 mm 5 mps 745 mmHg 43%
17:00 +9°C° 0.1 mm 5 mps 745 mmHg 50%
18:00 +7°C° 0.1 mm 4 mps 745 mmHg 57%
19:00 +7°C° 0.1 mm 3 mps 745 mmHg 64%
20:00 +6°C° 0 mm 2 mps 746 mmHg 67%
21:00 +5°C° 0 mm 2 mps 746 mmHg 69%
22:00 +5°C° 0 mm 1 mps 746 mmHg 72%
23:00 +5°C° 0 mm 1 mps 746 mmHg 74%

Tomorrow, 7 May, Friday

Time Temperature Precipitation Wind Pressure Humidity
00:00 +5°C° 0 mm 1 mps 746 mmHg 75%
01:00 +5°C° 0 mm 1 mps 745 mmHg 77%
02:00 +5°C° 0 mm 1 mps 745 mmHg 77%
03:00 +5°C° 0 mm 1 mps 745 mmHg 78%
04:00 +5°C° 0 mm 1 mps 745 mmHg 79%
05:00 +4°C° 0.1 mm 2 mps 745 mmHg 78%
06:00 +5°C° 0.1 mm 2 mps 746 mmHg 77%
07:00 +5°C° 0.1 mm 2 mps 746 mmHg 76%
08:00 +5°C° 0 mm 3 mps 746 mmHg 69%
09:00 +7°C° 0 mm 3 mps 747 mmHg 63%
10:00 +7°C° 0 mm 4 mps 747 mmHg 56%
11:00 +7°C° 0.1 mm 5 mps 748 mmHg 60%
12:00 +7°C° 0.1 mm 6 mps 748 mmHg 63%
13:00 +7°C° 0.1 mm 6 mps 748 mmHg 67%
14:00 +5°C° 0.4 mm 6 mps 749 mmHg 71%
15:00 +5°C° 0.4 mm 6 mps 749 mmHg 75%
16:00 +6°C° 0.4 mm 5 mps 750 mmHg 79%
17:00 +5°C° 0.2 mm 5 mps 750 mmHg 81%
18:00 +5°C° 0.2 mm 5 mps 751 mmHg 83%
19:00 +5°C° 0.2 mm 5 mps 751 mmHg 85%
20:00 +4°C° 0 mm 4 mps 752 mmHg 88%
21:00 +3°C° 0 mm 4 mps 752 mmHg 92%
22:00 +2°C° 0 mm 3 mps 753 mmHg 95%
23:00 +1°C° 0 mm 3 mps 753 mmHg 95%

Day after tomorrow, 8 May, Saturday

Time Temperature Precipitation Wind Pressure Humidity
00:00 0°C° 0 mm 4 mps 753 mmHg 95%
01:00 0°C° 0 mm 4 mps 753 mmHg 94%
02:00 0°C° 0 mm 4 mps 753 mmHg 95%
03:00 -1°C° 0 mm 4 mps 754 mmHg 96%
04:00 -1°C° 0 mm 4 mps 754 mmHg 96%
05:00 0°C° 0 mm 4 mps 754 mmHg 94%
06:00 +1°C° 0 mm 5 mps 755 mmHg 91%
07:00 +2°C° 0 mm 5 mps 755 mmHg 89%
08:00 +5°C° 0 mm 5 mps 755 mmHg 80%
09:00 +6°C° 0 mm 5 mps 756 mmHg 71%
10:00 +8°C° 0 mm 5 mps 756 mmHg 61%
11:00 +9°C° 0 mm 5 mps 756 mmHg 55%
12:00 +11°C° 0 mm 4 mps 756 mmHg 49%
13:00 +12°C° 0 mm 4 mps 756 mmHg 43%
14:00 +12°C° 0 mm 4 mps 756 mmHg 42%
15:00 +13°C° 0 mm 3 mps 755 mmHg 41%
16:00 +13°C° 0 mm 3 mps 755 mmHg 40%
17:00 +11°C° 0 mm 3 mps 755 mmHg 48%
18:00 +10°C° 0 mm 2 mps 755 mmHg 55%
19:00 +9°C° 0 mm 2 mps 755 mmHg 63%
20:00 +8°C° 0 mm 2 mps 755 mmHg 62%
21:00 +7°C° 0 mm 3 mps 755 mmHg 62%
22:00 +5°C° 0 mm 3 mps 754 mmHg 61%
23:00 +7°C° 0 mm 3 mps 754 mmHg 61%

9 May, Sunday

Time Temperature Precipitation Wind Pressure Humidity
00:00 +6°C° 0 mm 4 mps 754 mmHg 60%
01:00 +6°C° 0 mm 4 mps 753 mmHg 59%
02:00 +6°C° 0 mm 4 mps 753 mmHg 61%
03:00 +6°C° 0 mm 5 mps 752 mmHg 63%
04:00 +7°C° 0 mm 5 mps 752 mmHg 65%
05:00 +7°C° 0 mm 5 mps 752 mmHg 65%
06:00 +8°C° 0 mm 5 mps 751 mmHg 66%
07:00 +9°C° 0 mm 5 mps 751 mmHg 66%
08:00 +11°C° 0 mm 6 mps 751 mmHg 63%
09:00 +14°C° 0 mm 6 mps 751 mmHg 61%
10:00 +16°C° 0 mm 6 mps 751 mmHg 58%
11:00 +17°C° 0 mm 6 mps 751 mmHg 56%
12:00 +20°C° 0 mm 6 mps 751 mmHg 54%
13:00 +21°C° 0 mm 6 mps 751 mmHg 52%
14:00 +21°C° 0 mm 6 mps 750 mmHg 53%
15:00 +22°C° 0 mm 6 mps 750 mmHg 55%
16:00 +22°C° 0 mm 6 mps 750 mmHg 57%
17:00 +20°C° 0 mm 5 mps 750 mmHg 62%
18:00 +19°C° 0 mm 5 mps 750 mmHg 67%
19:00 +18°C° 0 mm 4 mps 749 mmHg 73%
20:00 +16°C° 0 mm 5 mps 750 mmHg 74%
21:00 +15°C° 0 mm 5 mps 750 mmHg 76%
22:00 +14°C° 0 mm 5 mps 750 mmHg 78%
23:00 +13°C° 0 mm 5 mps 750 mmHg 78%

10 May, Monday

Time Temperature Precipitation Wind Pressure Humidity
00:00 +12°C° 0 mm 5 mps 750 mmHg 78%
01:00 +10°C° 0 mm 5 mps 750 mmHg 79%
02:00 +10°C° 0 mm 5 mps 750 mmHg 80%
03:00 +10°C° 0 mm 4 mps 750 mmHg 81%
04:00 +10°C° 0 mm 4 mps 750 mmHg 81%
05:00 +11°C° 0 mm 4 mps 750 mmHg 79%
06:00 +12°C° 0 mm 5 mps 750 mmHg 76%
07:00 +13°C° 0 mm 5 mps 750 mmHg 73%
08:00 +14°C° 0 mm 5 mps 750 mmHg 69%
09:00 +16°C° 0 mm 5 mps 750 mmHg 64%
10:00 +19°C° 0 mm 5 mps 750 mmHg 60%
11:00 +20°C° 0 mm 4 mps 750 mmHg 57%
12:00 +21°C° 0 mm 4 mps 750 mmHg 55%
13:00 +22°C° 0 mm 4 mps 749 mmHg 53%
14:00 +22°C° 0 mm 3 mps 749 mmHg 53%
15:00 +24°C° 0 mm 3 mps 750 mmHg 53%
16:00 +24°C° 0 mm 3 mps 750 mmHg 52%
17:00 +23°C° 0 mm 2 mps 750 mmHg 58%
18:00 +21°C° 0 mm 2 mps 750 mmHg 64%
19:00 +20°C° 0 mm 1 mps 750 mmHg 70%
20:00 +18°C° 0 mm 2 mps 750 mmHg 75%
21:00 +17°C° 0 mm 2 mps 750 mmHg 80%
22:00 +15°C° 0 mm 2 mps 750 mmHg 84%
23:00 +15°C° 0 mm 2 mps 749 mmHg 86%

11 May, Tuesday

Time Temperature Precipitation Wind Pressure Humidity
00:00 +14°C° 0 mm 2 mps 749 mmHg 89%
01:00 +14°C° 0 mm 2 mps 749 mmHg 91%
02:00 +14°C° 0 mm 2 mps 749 mmHg 92%
03:00 +13°C° 0 mm 2 mps 749 mmHg 93%
04:00 +13°C° 0 mm 2 mps 748 mmHg 94%
05:00 +13°C° 0 mm 3 mps 748 mmHg 90%
06:00 +14°C° 0 mm 3 mps 749 mmHg 86%
07:00 +16°C° 0 mm 3 mps 749 mmHg 82%
08:00 +18°C° 0 mm 3 mps 748 mmHg 79%
09:00 +19°C° 0 mm 3 mps 748 mmHg 75%
10:00 +20°C° 0 mm 3 mps 748 mmHg 71%
11:00 +21°C° 0 mm 3 mps 748 mmHg 70%
12:00 +21°C° 0 mm 3 mps 748 mmHg 68%
13:00 +22°C° 0 mm 3 mps 748 mmHg 66%
14:00 +21°C° 0 mm 3 mps 748 mmHg 71%
15:00 +20°C° 0 mm 3 mps 749 mmHg 76%
16:00 +19°C° 0 mm 3 mps 749 mmHg 81%
17:00 +17°C° 0 mm 3 mps 749 mmHg 83%
18:00 +16°C° 0 mm 3 mps 749 mmHg 86%
19:00 +14°C° 0 mm 3 mps 750 mmHg 88%
20:00 +13°C° 0 mm 3 mps 750 mmHg 89%
21:00 +14°C° 0 mm 2 mps 750 mmHg 90%
22:00 +13°C° 0 mm 2 mps 750 mmHg 92%
23:00 +13°C° 0 mm 2 mps 750 mmHg 92%
Show more